| time (UTC) | temp F | wind direction | speed MPH | gust MPH | rain 1hr in | rain 24hr in | rain mn in | humidity % | barometer mb |
| 20260507093002 | 95 | 0 | 0.0 | 0.0 | 0.00 | 0.00 | 0.00 | 18 | 1007.1 |
| 20260507090001 | 96 | 0 | 0.0 | 0.0 | 0.00 | 0.00 | 0.00 | 18 | 1007.2 |
| 20260507083002 | 97 | 0 | 0.0 | 0.0 | 0.00 | 0.00 | 0.00 | 23 | 1007.4 |
| 20260507080002 | 99 | 0 | 0.0 | 0.0 | 0.00 | 0.00 | 0.00 | 22 | 1007.4 |
| 20260507073004 | 104 | 0 | 0.0 | 0.0 | 0.00 | 0.00 | 0.00 | 16 | 1007.3 |
| 20260507070004 | 108 | 0 | 0.0 | 0.0 | 0.00 | 0.00 | 0.00 | 13 | 1007.3 |
| 20260507063002 | 108 | 0 | 0.0 | 0.0 | 0.00 | 0.00 | 0.00 | 13 | 1007.4 |
| 20260507060004 | 106 | 0 | 0.0 | 0.0 | 0.00 | 0.00 | 0.00 | 13 | 1007.2 |
| 20260507053004 | 104 | 0 | 0.0 | 0.0 | 0.00 | 0.00 | 0.00 | 15 | 1007.0 |
| 20260507050002 | 100 | 0 | 0.0 | 0.0 | 0.00 | 0.00 | 0.00 | 17 | 1006.8 |
| 20260507043002 | 96 | 0 | 0.0 | 0.0 | 0.00 | 0.00 | 0.00 | 20 | 1006.5 |
| 20260507040002 | 90 | 0 | 0.0 | 0.0 | 0.00 | 0.00 | 0.00 | 25 | 1006.3 |
| 20260507030002 | 78 | 0 | 0.0 | 0.0 | 0.00 | 0.00 | 0.00 | 36 | 1006.0 |
| 20260507023002 | 78 | 0 | 0.0 | 0.0 | 0.00 | 0.00 | 0.00 | 37 | 1006.0 |
| 20260507020002 | 78 | 0 | 0.0 | 0.0 | 0.00 | 0.00 | 0.00 | 36 | 1005.8 |
| 20260507013001 | 79 | 0 | 0.0 | 0.0 | 0.00 | 0.00 | 0.00 | 36 | 1005.8 |
| 20260507010002 | 79 | 0 | 0.0 | 0.0 | 0.00 | 0.00 | 0.00 | 36 | 1005.8 |
| 20260507003002 | 79 | 0 | 0.0 | 0.0 | 0.00 | 0.00 | 0.00 | 36 | 1005.9 |
| 20260507000002 | 79 | 0 | 0.0 | 0.0 | 0.00 | 0.00 | 0.00 | 37 | 1005.8 |
| 20260506233001 | 79 | 0 | 0.0 | 0.0 | 0.00 | 0.00 | 0.00 | 37 | 1006.1 |
| 20260506230001 | 79 | 0 | 0.0 | 0.0 | 0.00 | 0.00 | 0.00 | 37 | 1006.1 |
| 20260506223003 | 80 | 0 | 0.0 | 0.0 | 0.00 | 0.00 | 0.00 | 37 | 1006.0 |
| 20260506220002 | 80 | 0 | 0.0 | 0.0 | 0.00 | 0.00 | 0.00 | 36 | 1006.1 |
| 20260506213003 | 81 | 0 | 0.0 | 0.0 | 0.00 | 0.00 | 0.00 | 36 | 1006.2 |
| 20260506210003 | 81 | 0 | 0.0 | 0.0 | 0.00 | 0.00 | 0.00 | 35 | 1006.2 |
| 20260506203002 | 82 | 0 | 0.0 | 0.0 | 0.00 | 0.00 | 0.00 | 35 | 1006.1 |
| 20260506200002 | 82 | 0 | 0.0 | 0.0 | 0.00 | 0.00 | 0.00 | 35 | 1006.0 |
| 20260506193002 | 83 | 0 | 0.0 | 0.0 | 0.00 | 0.00 | 0.00 | 35 | 1005.9 |
| 20260506190004 | 84 | 0 | 0.0 | 0.0 | 0.00 | 0.00 | 0.00 | 35 | 1005.6 |
| 20260506183002 | 85 | 0 | 0.0 | 0.0 | 0.00 | 0.00 | 0.00 | 35 | 1005.3 |
| 20260506180003 | 85 | 0 | 0.0 | 0.0 | 0.00 | 0.00 | 0.00 | 34 | 1005.1 |
| 20260506173002 | 87 | 0 | 0.0 | 0.0 | 0.00 | 0.00 | 0.00 | 32 | 1004.9 |
| 20260506170002 | 88 | 0 | 0.0 | 0.0 | 0.00 | 0.00 | 0.00 | 32 | 1004.8 |
| 20260506163002 | 89 | 0 | 0.0 | 0.0 | 0.00 | 0.00 | 0.00 | 31 | 1004.7 |
| 20260506153002 | 92 | 0 | 0.0 | 0.0 | 0.00 | 0.00 | 0.00 | 25 | 1004.8 |
| 20260506150002 | 93 | 0 | 0.0 | 0.0 | 0.00 | 0.00 | 0.00 | 25 | 1004.7 |
| 20260506143001 | 93 | 0 | 0.0 | 0.0 | 0.00 | 0.00 | 0.00 | 26 | 1004.8 |
| 20260506140003 | 93 | 0 | 0.0 | 0.0 | 0.00 | 0.00 | 0.00 | 25 | 1004.9 |
| 20260506133002 | 93 | 0 | 0.0 | 0.0 | 0.00 | 0.00 | 0.00 | 25 | 1004.8 |
| 20260506130003 | 93 | 0 | 0.0 | 0.0 | 0.00 | 0.00 | 0.00 | 24 | 1004.9 |
| 20260506123003 | 94 | 0 | 0.0 | 0.0 | 0.00 | 0.00 | 0.00 | 24 | 1005.0 |
| 20260506120002 | 94 | 0 | 0.0 | 0.0 | 0.00 | 0.00 | 0.00 | 24 | 1005.1 |
| 20260506113002 | 94 | 0 | 0.0 | 0.0 | 0.00 | 0.00 | 0.00 | 23 | 1005.5 |
| 20260506110002 | 94 | 0 | 0.0 | 0.0 | 0.00 | 0.00 | 0.00 | 22 | 1005.6 |
| 20260506103002 | 94 | 0 | 0.0 | 0.0 | 0.00 | 0.00 | 0.00 | 21 | 1005.6 |
| 20260506100002 | 94 | 0 | 0.0 | 0.0 | 0.00 | 0.00 | 0.00 | 21 | 1005.6 |